Total_Precipitation_Accumulation
0.06 0.09 0.08 0.07 0.05 0.07 0.08 0.09 0.12 0.19 0.37 0.50 0.67 0.77 0.81 0.83 0.83 0.81 0.78 0.70 0.61 0.55 0.48 0.41 0.37 0.33 0.28 0.26 0.22 0.18 0.16 0.15 0.17 0.19 0.20 0.20 0.21 0.20 0.20 0.21 0.20 0.20 0.17 0.15
0.04 0.07 0.08 0.08 0.08 0.08 0.11 0.15 0.21 0.32 0.54 0.74 0.89 0.90 0.91 0.90 0.82 0.78 0.76 0.75 0.73 0.70 0.62 0.53 0.46 0.41 0.36 0.33 0.30 0.27 0.28 0.31 0.30 0.29 0.28 0.28 0.27 0.26 0.26 0.24 0.21 0.17 0.13 0.10
0.04 0.05 0.08 0.17 0.19 0.17 0.20 0.26 0.32 0.43 0.55 0.67 0.81 0.90 0.87 0.83 0.81 0.82 0.86 0.84 0.79 0.70 0.64 0.59 0.55 0.52 0.51 0.49 0.46 0.44 0.43 0.41 0.37 0.34 0.32 0.30 0.27 0.28 0.25 0.20 0.16 0.13 0.09 0.06
0.06 0.09 0.18 0.24 0.21 0.23 0.29 0.36 0.39 0.45 0.50 0.62 0.73 0.79 0.76 0.72 0.74 0.78 0.81 0.77 0.70 0.61 0.58 0.59 0.63 0.63 0.59 0.54 0.50 0.48 0.46 0.43 0.36 0.30 0.26 0.26 0.26 0.23 0.17 0.13 0.11 0.09 0.07 0.05
0.14 0.17 0.27 0.39 0.26 0.22 0.29 0.37 0.33 0.39 0.43 0.56 0.59 0.62 0.65 0.65 0.66 0.68 0.64 0.59 0.57 0.58 0.62 0.70 0.72 0.67 0.61 0.56 0.50 0.46 0.42 0.34 0.25 0.19 0.19 0.17 0.15 0.13 0.11 0.11 0.10 0.07 0.04 0.04
0.28 0.32 0.40 0.45 0.22 0.16 0.29 0.49 0.38 0.39 0.39 0.42 0.46 0.56 0.55 0.52 0.50 0.50 0.51 0.53 0.60 0.68 0.74 0.73 0.66 0.56 0.49 0.44 0.37 0.31 0.24 0.19 0.15 0.13 0.10 0.08 0.08 0.09 0.10 0.09 0.08 0.05 0.03 0.05
0.44 0.56 0.59 0.30 0.14 0.22 0.46 0.51 0.43 0.40 0.40 0.39 0.43 0.46 0.38 0.36 0.41 0.47 0.52 0.57 0.62 0.65 0.62 0.56 0.47 0.40 0.37 0.31 0.25 0.18 0.13 0.10 0.08 0.06 0.04 0.04 0.06 0.09 0.08 0.07 0.07 0.06 0.05 0.06
0.54 0.65 0.69 0.30 0.18 0.33 0.40 0.34 0.34 0.35 0.35 0.35 0.35 0.32 0.32 0.35 0.39 0.45 0.51 0.53 0.50 0.46 0.41 0.34 0.27 0.24 0.22 0.18 0.12 0.08 0.07 0.05 0.04 0.03 0.02 0.03 0.06 0.08 0.08 0.08 0.08 0.07 0.06 0.06
0.65 0.72 0.54 0.29 0.24 0.27 0.30 0.31 0.30 0.33 0.34 0.35 0.37 0.39 0.41 0.44 0.46 0.45 0.43 0.41 0.36 0.29 0.23 0.17 0.14 0.15 0.14 0.10 0.07 0.06 0.07 0.07 0.04 0.03 0.03 0.04 0.06 0.08 0.07 0.08 0.07 0.06 0.05 0.05
0.56 0.62 0.44 0.29 0.23 0.22 0.23 0.25 0.28 0.34 0.36 0.34 0.34 0.33 0.35 0.38 0.39 0.38 0.34 0.28 0.22 0.17 0.14 0.11 0.09 0.07 0.06 0.05 0.05 0.07 0.09 0.07 0.06 0.06 0.07 0.06 0.06 0.05 0.05 0.06 0.05 0.05 0.06 0.06
0.63 0.62 0.49 0.39 0.28 0.24 0.27 0.29 0.32 0.34 0.30 0.28 0.25 0.23 0.22 0.23 0.24 0.22 0.19 0.15 0.12 0.10 0.08 0.06 0.05 0.04 0.03 0.03 0.04 0.06 0.07 0.06 0.05 0.06 0.07 0.08 0.07 0.03 0.02 0.04 0.02 0.04 0.06 0.07
0.75 0.62 0.49 0.46 0.38 0.33 0.32 0.29 0.26 0.22 0.21 0.23 0.21 0.19 0.18 0.17 0.15 0.14 0.11 0.09 0.08 0.07 0.04 0.03 0.02 0.02 0.01 0.02 0.02 0.05 0.06 0.05 0.04 0.04 0.06 0.06 0.09 0.08 0.02 0.01 0.01 0.02 0.03 0.05
0.49 0.39 0.37 0.35 0.35 0.38 0.30 0.23 0.20 0.16 0.12 0.15 0.16 0.14 0.13 0.13 0.11 0.08 0.07 0.06 0.05 0.04 0.02 0.01 0.01 0.01 0.01 0.01 0.01 0.02 0.04 0.04 0.04 0.04 0.05 0.06 0.09 0.13 0.11 0.06 0.04 0.04 0.03 0.03
0.37 0.39 0.42 0.32 0.25 0.23 0.18 0.15 0.13 0.10 0.08 0.08 0.09 0.09 0.08 0.07 0.06 0.04 0.04 0.02 0.01 0.01 0.01 0.01 0.01 0.00 0.00 0.00 0.01 0.02 0.04 0.03 0.02 0.04 0.04 0.05 0.08 0.09 0.10 0.12 0.14 0.14 0.08 0.04
0.31 0.31 0.29 0.19 0.13 0.12 0.09 0.07 0.07 0.07 0.06 0.07 0.06 0.05 0.05 0.05 0.04 0.03 0.02 0.01 0.00 0.01 0.00 0.01 0.01 0.00 0.00 0.00 0.01 0.02 0.04 0.06 0.04 0.03 0.03 0.03 0.05 0.06 0.06 0.09 0.11 0.13 0.11 0.08
0.22 0.17 0.13 0.10 0.10 0.10 0.09 0.06 0.05 0.05 0.05 0.05 0.05 0.05 0.03 0.02 0.02 0.01 0.01 0.01 0.01 0.01 0.01 0.00 0.01 0.00 0.00 0.00 0.01 0.03 0.03 0.01 0.01 0.02 0.02 0.02 0.03 0.04 0.05 0.07 0.10 0.13 0.13 0.10
0.15 0.14 0.11 0.09 0.08 0.09 0.08 0.07 0.06 0.05 0.05 0.05 0.04 0.02 0.01 0.01 0.02 0.02 0.01 0.00 0.00 0.00 0.00 0.00 0.00 0.00 0.00 0.00 0.01 0.01 0.02 0.01 0.01 0.01 0.02 0.02 0.02 0.02 0.03 0.05 0.08 0.12 0.14 0.13
0.08 0.08 0.07 0.06 0.04 0.04 0.04 0.04 0.03 0.03 0.03 0.02 0.01 0.01 0.01 0.02 0.02 0.01 0.00 0.00 0.00 0.00 0.00 0.00 0.00 0.00 0.00 0.00 0.00 0.00 0.01 0.01 0.01 0.01 0.01 0.01 0.01 0.02 0.03 0.04 0.06 0.09 0.12 0.14
0.05 0.03 0.04 0.03 0.02 0.02 0.02 0.02 0.02 0.01 0.01 0.01 0.01 0.01 0.01 0.01 0.00 0.00 0.00 0.00 0.00 0.00 0.00 0.00 0.00 0.00 0.00 0.00 0.00 0.00 0.00 0.00 0.00 0.00 0.00 0.00 0.00 0.01 0.02 0.03 0.04 0.06 0.09 0.12
0.03 0.02 0.02 0.02 0.02 0.01 0.02 0.01 0.01 0.00 0.01 0.02 0.02 0.00 0.00 0.00 0.00 0.00 0.00 0.00 0.00 0.00 0.00 0.00 0.00 0.00 0.00 0.00 0.00 0.00 0.00 0.00 0.00 0.00 0.00 0.00 0.00 0.01 0.01 0.02 0.03 0.05 0.07 0.10
0.03 0.02 0.01 0.01 0.01 0.01 0.01 0.01 0.01 0.01 0.01 0.02 0.01 0.00 0.00 0.00 0.00 0.00 0.00 0.00 0.00 0.00 0.00 0.00 0.00 0.00 0.00 0.00 0.00 0.00 0.00 0.00 0.00 0.00 0.00 0.00 0.00 0.00 0.01 0.01 0.02 0.03 0.04 0.06
0.03 0.02 0.01 0.01 0.01 0.01 0.01 0.01 0.01 0.01 0.02 0.02 0.01 0.00 0.00 0.00 0.00 0.00 0.00 0.00 0.00 0.00 0.00 0.00 0.00 0.00 0.00 0.00 0.00 0.00 0.00 0.00 0.00 0.00 0.00 0.00 0.00 0.00 0.00 0.01 0.01 0.01 0.02 0.03
0.07 0.04 0.02 0.01 0.01 0.02 0.02 0.02 0.02 0.02 0.02 0.01 0.00 0.00 0.00 0.00 0.00 0.00 0.00 0.00 0.00 0.00 0.00 0.00 0.00 0.00 0.00 0.00 0.00 0.00 0.00 0.00 0.00 0.00 0.00 0.00 0.00 0.00 0.00 0.00 0.00 0.01 0.01 0.01
0.09 0.06 0.04 0.03 0.02 0.02 0.03 0.02 0.03 0.02 0.01 0.01 0.00 0.00 0.00 0.00 0.00 0.00 0.00 0.00 0.00 0.00 0.00 0.00 0.00 0.00 0.00 0.00 0.00 0.00 0.00 0.00 0.00 0.00 0.00 0.00 0.00 0.00 0.00 0.00 0.00 0.00 0.00 0.01
0.11 0.08 0.06 0.05 0.06 0.05 0.04 0.03 0.03 0.02 0.01 0.00 0.00 0.00 0.00 0.00 0.00 0.00 0.00 0.00 0.00 0.00 0.00 0.00 0.00 0.00 0.00 0.00 0.00 0.00 0.00 0.00 0.00 0.00 0.00 0.00 0.00 0.00 0.00 0.00 0.00 0.00 0.00 0.00
0.16 0.14 0.11 0.09 0.08 0.06 0.03 0.03 0.03 0.01 0.00 0.00 0.00 0.00 0.00 0.00 0.00 0.00 0.00 0.00 0.00 0.00 0.00 0.00 0.00 0.00 0.00 0.00 0.00 0.00 0.00 0.00 0.00 0.00 0.00 0.00 0.00 0.00 0.00 0.00 0.00 0.00 0.00 0.00
0.22 0.16 0.13 0.09 0.06 0.03 0.02 0.02 0.01 0.00 0.00 0.00 0.00 0.00 0.00 0.00 0.00 0.00 0.00 0.00 0.00 0.00 0.00 0.00 0.00 0.00 0.00 0.00 0.00 0.00 0.00 0.00 0.00 0.00 0.00 0.00 0.00 0.00 0.00 0.00 0.00 0.00 0.00 0.00